Location: Newark
(49.8348°N, 24.0280°E)
Time: 00:14:59
(UTC+00:00)

deb Explorer IX - Pass Details

Date: 28 January 2020
Orbit: 549 x 1099 km, 38.8° (Epoch: 25 February)

Event Time Altitude Azimuth Distance (km) Brightness Sun altitude
Rises 18:20:19 0° 211° (SSW) 3,577 ? -30.4°
Reaches altitude 10° 18:23:36 10° 194° (SSW) 2,727 ? -30.9°
Enters shadow 18:24:44 13° 186° (S) 2,506 ? -31.1°
